SCP
4 4 4 5 6 7 9 10 10 9 7 7 7 7 6 4 3 2 2 1 1 1 2 2 2 1 1 1 1 1 1 0 0 0 0 0 0 0 1 0 0 1 1
5 6 7 8 9 10 11 12 10 9 9 8 8 7 5 4 3 2 2 2 2 2 2 2 2 1 1 1 1 1 1 0 0 0 0 0 0 0 0 0 1 1 2
7 10 13 15 15 15 15 14 12 10 9 9 8 6 4 2 1 1 1 1 2 2 2 2 1 2 1 1 1 1 1 0 0 0 0 0 0 0 0 1 1 2 2
10 14 18 19 19 17 16 15 12 9 8 7 6 4 2 1 1 1 1 1 1 1 1 1 1 1 1 1 1 1 1 0 0 0 0 0 0 0 1 1 2 2 2
10 13 17 18 17 15 15 14 10 7 5 4 3 2 1 1 1 1 1 1 1 1 1 1 1 1 1 1 1 0 0 0 0 0 0 0 0 0 1 1 1 1 1
6 8 11 14 14 12 12 11 8 6 5 4 3 2 1 1 1 1 1 1 1 1 1 1 1 1 1 0 0 0 0 0 0 0 0 0 0 0 1 1 1 0 0
2 3 6 11 13 13 11 8 6 5 5 4 3 2 1 1 1 1 1 1 1 1 1 0 0 0 0 0 0 0 0 0 0 0 0 0 0 0 0 0 0 0 0
1 2 4 8 11 13 12 9 6 6 5 5 4 2 1 1 1 1 1 1 1 1 1 0 0 0 0 0 0 0 0 0 0 0 0 0 0 0 0 0 0 0 0
1 1 2 5 8 11 11 10 7 6 6 5 3 2 2 1 1 1 1 1 1 1 0 0 0 0 0 0 0 0 0 0 0 0 0 0 0 0 0 0 0 0 0
1 1 2 3 5 8 10 9 7 6 5 4 3 2 1 1 1 1 2 1 1 1 1 0 0 1 1 0 0 0 0 0 0 0 0 0 0 0 0 0 0 0 0
1 2 2 2 3 6 8 8 6 5 4 4 3 2 1 1 1 1 1 1 1 1 1 1 1 1 1 1 0 0 0 0 0 0 0 0 0 0 0 0 0 0 0
1 2 3 3 4 6 7 6 5 4 4 4 4 3 1 1 1 1 1 1 1 1 1 1 1 1 1 1 0 0 0 0 0 0 0 0 0 0 0 0 0 0 0
2 3 3 3 5 6 6 5 4 3 4 5 4 3 2 1 1 1 1 1 1 1 1 1 1 1 1 1 0 0 0 0 0 0 0 0 0 0 0 0 0 0 0
2 3 3 4 5 6 5 4 3 3 4 5 5 4 2 1 1 1 0 0 1 1 1 1 1 1 1 1 0 0 0 0 0 0 0 0 0 0 0 0 0 0 0
2 3 3 4 5 5 4 3 2 2 3 4 6 5 3 1 1 1 0 0 0 1 1 1 1 1 1 1 0 0 0 0 0 0 0 0 0 0 0 0 0 0 0
3 3 3 4 4 4 3 2 1 1 1 2 4 4 3 2 1 1 1 1 0 0 0 1 1 1 0 0 0 0 0 0 0 0 0 0 0 0 0 0 0 0 0
3 3 3 3 3 2 2 1 1 1 1 1 2 2 2 2 2 1 1 1 1 0 0 0 1 0 0 0 0 0 0 0 0 0 0 0 0 0 0 0 0 0 0
2 2 2 2 2 2 2 1 1 0 0 0 1 1 1 1 1 1 1 1 1 1 0 0 0 0 0 0 0 0 0 0 0 0 0 0 0 0 0 0 0 0 0
1 1 1 1 2 2 2 1 1 0 0 0 0 0 1 1 1 1 1 1 1 1 0 0 0 0 0 0 0 0 0 0 0 0 0 0 0 0 0 0 0 0 0
1 1 1 1 2 2 2 1 1 0 0 0 0 0 0 1 1 1 1 1 1 1 1 0 0 0 0 0 0 0 0 0 0 0 0 0 0 0 0 0 0 0 0
2 2 2 2 2 2 2 1 1 0 0 0 0 0 0 0 0 1 1 1 1 1 1 0 0 0 0 0 0 0 0 0 0 0 0 0 0 0 0 0 0 0 0
2 2 2 2 2 2 2 1 1 1 0 0 0 0 0 0 0 0 0 0 0 1 1 0 0 0 0 0 0 0 0 0 0 0 0 0 0 0 0 0 0 0 0
2 2 2 3 3 3 2 2 1 1 1 0 0 0 0 0 0 0 0 0 0 0 0 0 0 0 0 0 0 0 0 0 0 0 0 0 0 0 0 0 0 0 0
2 2 3 4 4 3 2 2 2 1 1 1 0 0 0 0 0 0 0 0 0 0 0 0 0 0 0 0 0 0 0 0 0 0 0 0 0 0 0 0 0 0 0
2 1 2 4 4 3 2 2 2 2 1 1 0 0 0 0 0 0 0 0 0 0 0 0 0 0 0 0 0 0 0 0 0 0 0 0 0 0 0 0 0 0 0
2 1 2 3 3 3 3 2 2 2 1 1 0 0 0 0 0 0 0 0 0 0 0 0 0 0 0 0 0 0 0 0 0 0 0 0 0 0 0 0 0 0 0
Wind_Speed
8 8 8 9 8 8 7 7 6 5 4 3 3 3 2 2 1 2 3 3 3 3 3 2 2 2 2 2 2 1 1 1 1 2 2 2 2 1 2 2 2 3 3
7 8 8 9 9 9 9 8 7 6 5 4 3 3 3 2 1 1 2 3 3 3 3 3 2 2 2 2 2 2 1 0 1 2 2 2 3 2 1 1 2 2 2
11 10 10 10 9 9 9 8 7 6 5 5 3 3 3 2 1 1 1 1 2 3 3 3 3 2 2 2 1 2 3 1 0 1 3 3 2 2 2 1 1 1 1
10 10 10 10 10 10 9 8 7 7 5 5 5 5 4 3 3 2 2 1 2 2 3 3 3 3 2 2 2 2 2 3 1 0 1 2 3 2 1 2 1 1 1
9 10 10 11 10 9 8 7 7 6 6 6 6 5 3 3 2 2 2 1 1 2 3 3 3 3 2 2 2 2 2 2 2 2 1 1 1 1 2 1 1 2 1
7 7 7 8 7 7 7 7 7 6 6 6 5 6 5 4 4 3 2 2 1 1 1 2 2 2 2 3 3 3 3 2 2 2 2 2 2 2 2 2 1 1 2
6 6 7 7 7 7 7 7 7 6 6 6 5 5 6 5 5 4 4 3 2 2 3 2 2 2 2 3 2 2 3 3 3 3 2 2 2 2 3 2 1 1 2
5 6 6 6 7 7 6 7 7 7 6 6 5 5 5 4 3 4 4 4 3 3 4 3 3 3 3 3 3 2 2 2 3 3 3 2 2 2 3 3 3 0 2
5 6 6 5 5 6 6 7 7 7 7 7 6 5 5 4 4 4 3 3 3 3 4 4 4 3 3 3 3 2 2 2 3 3 3 2 2 2 2 3 3 3 2
4 4 6 6 5 5 4 5 5 5 5 5 5 5 5 5 4 4 3 3 3 3 4 4 4 4 4 3 3 2 3 3 2 2 3 2 2 2 2 2 2 3 3
5 4 4 5 5 4 4 4 4 4 4 4 4 4 4 4 4 4 4 4 3 4 4 4 4 4 4 4 4 3 4 4 3 3 3 3 3 2 2 2 2 2 3
5 5 4 4 4 4 4 3 3 4 3 3 3 3 3 3 3 3 4 4 3 3 4 4 4 4 4 4 4 4 4 4 4 4 3 3 3 3 2 2 2 2 3
4 4 4 4 4 4 4 3 2 3 3 3 3 3 3 3 4 4 3 3 3 3 3 3 4 4 4 4 4 5 4 5 5 5 5 4 4 3 2 3 2 2 2
5 5 4 3 3 4 4 3 2 2 3 3 3 3 3 3 4 3 3 3 3 3 3 3 4 4 4 4 4 4 4 4 4 4 5 5 5 4 4 3 3 2 2
4 4 4 3 4 3 3 3 2 2 3 3 3 3 2 2 3 3 3 2 2 3 3 3 3 3 3 4 4 4 5 4 4 4 4 5 6 6 5 4 4 3 2
5 4 5 5 5 4 3 2 2 2 3 3 2 2 2 2 2 2 2 2 2 2 2 3 3 3 3 4 6 5 4 4 4 4 4 4 5 6 7 7 7 7 5
4 4 5 5 5 4 4 3 3 2 2 2 2 2 2 2 2 2 2 2 3 3 3 3 3 3 3 4 5 6 4 4 4 4 4 3 3 4 3 4 5 6 8
4 5 5 4 4 3 3 3 2 2 2 2 2 2 2 2 2 2 2 3 2 3 3 3 3 3 3 4 4 5 4 3 4 4 5 4 4 4 4 3 3 4 5
4 4 4 5 4 4 3 3 2 1 2 2 2 2 2 2 2 2 3 3 2 2 2 2 3 3 3 4 4 5 3 2 3 3 3 4 4 6 5 3 3 4 4
4 3 3 4 4 3 3 3 2 1 1 2 2 2 2 2 3 3 2 2 2 3 2 2 2 3 3 3 4 6 3 3 2 2 2 4 5 6 6 4 4 4 5
3 4 4 4 3 3 3 2 1 1 2 2 2 1 2 2 3 2 2 1 2 2 1 1 2 2 3 3 4 6 3 3 3 2 2 3 5 6 6 5 5 7 5
3 3 3 2 2 3 4 2 1 2 1 0 0 1 1 2 1 2 1 1 2 2 1 1 1 2 2 3 4 6 5 4 3 3 3 3 5 5 6 5 6 6 4
2 2 3 2 1 2 3 2 1 0 1 1 1 1 1 1 1 2 2 2 1 1 1 1 2 2 2 2 4 5 6 6 4 3 4 5 5 4 3 5 6 4 2
1 2 3 2 1 1 1 2 1 1 2 1 1 1 1 1 1 1 2 2 2 2 2 2 2 2 2 2 2 2 3 3 3 3 3 4 4 3 3 4 3 2 3
1 2 2 2 1 1 0 0 1 2 2 1 1 1 1 1 1 1 1 2 3 4 4 3 3 3 3 5 4 3 3 3 3 1 1 1 1 1 2 2 2 2 2
2 2 2 2 1 1 1 1 0 2 2 0 1 1 1 1 1 1 2 3 3 4 6 6 5 4 6 6 5 5 5 5 4 2 2 2 3 3 3 3 3 3 3
Wind_Direction
173 165 167 161 153 145 143 143 142 151 146 143 145 143 149 152 155 167 161 153 147 135 127 132 132 120 126 140 135 117 93 47 96 75 10 342 334 240 197 184 174 187 184
159 162 161 160 158 157 155 153 153 154 156 158 161 151 142 141 146 133 138 152 152 153 147 141 143 137 128 125 123 118 108 20 105 124 97 9 346 338 299 189 185 190 173
165 164 165 164 163 165 167 163 159 153 153 146 128 111 89 71 77 105 149 168 157 156 148 147 145 144 140 148 162 145 146 169 293 134 141 146 217 306 330 313 193 175 174
165 165 166 165 169 172 167 159 158 153 149 143 145 150 155 167 191 177 171 169 158 157 153 145 141 146 148 159 186 170 166 155 173 91 132 158 161 153 297 320 306 230 203
165 168 171 169 168 165 161 157 154 154 157 155 159 159 162 172 162 146 149 168 175 166 162 153 149 155 159 169 179 176 169 160 166 168 158 114 99 128 153 233 309 327 283
153 157 158 153 155 155 155 155 157 162 163 161 163 165 165 164 156 156 165 180 181 165 176 171 165 170 171 182 189 183 170 168 163 166 159 156 150 175 162 180 223 268 285
136 139 146 150 152 155 162 164 165 168 171 170 173 172 168 168 174 178 179 179 183 194 206 191 183 184 190 191 185 180 178 170 167 176 177 173 179 172 163 156 188 256 295
134 139 147 151 153 159 170 170 171 175 177 177 178 174 169 172 182 186 181 185 193 201 198 192 195 198 191 188 176 172 186 174 180 187 181 176 196 177 167 163 156 161 313
142 144 142 144 149 152 171 175 175 178 180 180 174 173 177 178 186 186 181 186 195 196 189 191 194 198 191 184 172 178 191 180 190 195 192 188 196 179 177 164 159 161 204
140 140 139 146 153 155 166 168 166 172 176 176 178 176 179 180 180 173 185 190 194 191 185 194 195 196 191 187 183 186 190 180 194 189 184 190 197 183 183 183 178 166 175
152 142 145 149 147 141 142 150 158 155 161 169 169 165 168 174 172 174 186 189 192 192 195 200 197 196 195 191 185 194 187 186 196 194 185 196 190 187 202 187 177 183 171
146 142 141 136 129 131 142 140 158 156 163 165 161 165 171 169 169 185 189 184 189 199 202 199 193 196 196 190 186 199 196 190 194 200 191 199 195 197 201 188 200 205 195
128 125 130 134 138 143 138 139 160 158 158 149 151 161 175 178 185 191 190 188 188 193 199 192 195 202 199 193 195 198 199 195 198 196 193 198 183 201 206 198 202 206 209
141 139 145 145 150 149 141 142 173 159 156 146 148 170 184 188 191 185 177 188 187 186 193 198 206 209 201 196 198 196 195 194 201 199 198 198 189 196 201 203 202 198 201
142 151 158 151 146 140 141 148 169 164 159 156 166 188 196 193 187 183 185 188 186 192 193 195 213 217 201 199 192 194 189 186 195 206 209 206 204 204 204 203 200 191 195
161 169 165 156 155 157 156 154 171 174 159 165 191 194 185 182 182 184 187 197 201 204 198 202 205 218 222 210 198 190 187 186 192 205 215 219 218 220 223 222 213 198 195
166 175 172 163 166 169 163 170 183 169 145 157 182 182 180 184 200 195 188 204 209 205 209 215 203 216 232 209 192 186 177 186 195 200 203 218 218 218 219 235 239 235 231
176 180 172 167 164 164 161 163 160 157 162 172 182 188 188 204 205 198 209 222 210 205 210 216 215 216 229 212 196 187 176 182 199 204 202 206 221 220 210 221 245 251 249
155 163 171 166 158 161 159 140 131 148 164 184 207 212 201 207 205 219 229 216 206 216 215 207 207 213 233 221 203 182 166 182 212 218 210 206 212 221 210 204 231 259 269
128 136 143 135 134 146 138 125 133 139 189 218 224 218 201 204 213 224 235 217 200 211 210 212 210 206 223 227 210 186 171 184 214 238 237 228 221 223 214 205 208 232 253
124 123 126 134 150 144 122 126 144 206 227 230 225 217 213 213 218 218 211 204 202 199 204 220 238 225 225 228 218 198 182 191 198 218 246 247 227 229 228 218 214 228 234
102 126 128 135 142 132 123 132 197 237 254 270 238 234 234 233 208 203 217 199 184 192 207 230 267 263 248 225 211 202 201 195 191 215 231 238 235 239 237 232 235 237 240
112 131 133 127 129 137 133 153 225 271 37 41 8 315 303 292 217 198 197 197 188 188 212 217 245 269 270 248 220 210 209 207 206 223 233 242 243 250 249 245 243 232 217
112 123 124 128 139 140 138 167 179 125 95 64 345 324 325 319 294 236 207 199 199 203 216 218 237 259 272 262 233 221 216 220 230 244 256 260 253 248 254 263 253 230 217
99 117 140 158 162 120 107 171 147 117 93 53 348 343 344 326 324 298 255 229 223 210 209 216 214 220 251 252 234 211 210 205 215 216 276 298 298 279 276 271 257 240 230
117 110 126 129 126 94 355 313 281 128 121 49 341 322 318 314 296 295 320 320 272 258 238 230 221 232 238 245 242 241 236 225 201 176 227 240 241 243 245 244 253 245 233